EWG9UH EGCC-EDDS

Flight info

Callsign EWG9UH
Flight time N/A
Altitude 37000
Route DESIG L603 DOLAS DCT NAVPI DCT DODEN DCT TABUM DCT FOLWU DCT UBENO N850 KRH T128 BADSO BADSO2A
Aircraft A320/M-SDE3FGHIRWY/LB1

Departure

Time 2026-04-30 18:18
Airport Manchester Airport (EGCC)

Arrival

Time N/A
Airport Stuttgart Airport (EDDS)
Time Latitude Longitude Altitude Speed Heading
2026-04-30 17:39 53.36836 -2.28882 255 ft 0 kts 135°
2026-04-30 17:58 53.36838 -2.28886 255 ft 3 kts 135°
2026-04-30 17:59 53.36869 -2.28936 255 ft 2 kts 225°
2026-04-30 18:00 53.36868 -2.28938 255 ft 0 kts 225°
2026-04-30 18:03 53.36761 -2.29041 255 ft 7 kts 183°
2026-04-30 18:04 53.36648 -2.28899 255 ft 6 kts 158°
2026-04-30 18:05 53.36523 -2.28659 255 ft 9 kts 133°
2026-04-30 18:06 53.36308 -2.28412 255 ft 10 kts 134°
2026-04-30 18:07 53.36099 -2.28057 255 ft 12 kts 137°
2026-04-30 18:08 53.35886 -2.27849 255 ft 13 kts 183°
2026-04-30 18:09 53.35571 -2.28013 237 ft 17 kts 232°
2026-04-30 18:10 53.35143 -2.28483 227 ft 21 kts 231°
2026-04-30 18:11 53.34863 -2.29007 223 ft 18 kts 226°
2026-04-30 18:11 53.34715 -2.29295 215 ft 0 kts 222°
2026-04-30 18:14 53.34712 -2.29299 214 ft 4 kts 221°
2026-04-30 18:15 53.34678 -2.29330 211 ft 0 kts 199°
2026-04-30 18:15 53.34635 -2.29347 214 ft 2 kts 180°
2026-04-30 18:16 53.34542 -2.29260 213 ft 10 kts 108°
2026-04-30 18:16 53.34676 -2.28937 222 ft 17 kts 51°
2026-04-30 18:17 53.34688 -2.28914 220 ft 0 kts 51°
2026-04-30 18:18 53.34767 -2.28751 225 ft 56 kts 51°
2026-04-30 18:18 53.35184 -2.27863 237 ft 135 kts 51°
2026-04-30 18:18 53.35867 -2.26385 529 ft 170 kts 59°
2026-04-30 18:18 53.36588 -2.24812 1452 ft 172 kts 58°
2026-04-30 18:19 53.37364 -2.23273 2458 ft 173 kts 54°
2026-04-30 18:19 53.38204 -2.21823 3415 ft 173 kts 58°
2026-04-30 18:19 53.38976 -2.20215 3766 ft 190 kts 60°
2026-04-30 18:19 53.39817 -2.18338 4076 ft 213 kts 59°
2026-04-30 18:20 53.40756 -2.16246 4409 ft 237 kts 58°
2026-04-30 18:20 53.41808 -2.13940 4784 ft 261 kts 56°
2026-04-30 18:20 53.42961 -2.11442 4992 ft 277 kts 56°
2026-04-30 18:20 53.44162 -2.08871 5010 ft 280 kts 56°
2026-04-30 18:21 53.45369 -2.06307 5011 ft 279 kts 56°
2026-04-30 18:21 53.46571 -2.03765 5017 ft 276 kts 57°
2026-04-30 18:21 53.47761 -2.01244 5023 ft 276 kts 57°
2026-04-30 18:21 53.48953 -1.98718 5021 ft 277 kts 56°
2026-04-30 18:22 53.50151 -1.96196 5018 ft 275 kts 57°
2026-04-30 18:22 53.51938 -1.90676 5022 ft 265 kts 82°
2026-04-30 18:22 53.52146 -1.87634 5080 ft 263 kts 96°
2026-04-30 18:23 53.51880 -1.84608 5936 ft 259 kts 110°
2026-04-30 18:23 53.51377 -1.81696 6859 ft 261 kts 110°
2026-04-30 18:23 53.50865 -1.78754 7689 ft 264 kts 110°
2026-04-30 18:23 53.50342 -1.75768 8497 ft 268 kts 110°
2026-04-30 18:24 53.49268 -1.69662 10110 ft 277 kts 111°
2026-04-30 18:24 53.48716 -1.66553 10637 ft 290 kts 111°
2026-04-30 18:24 53.48110 -1.63187 10865 ft 313 kts 110°
2026-04-30 18:25 53.47457 -1.59551 11018 ft 337 kts 110°
2026-04-30 18:25 53.46060 -1.51688 11975 ft 357 kts 110°
2026-04-30 18:25 53.45352 -1.47690 12725 ft 359 kts 110°
2026-04-30 18:26 53.43901 -1.39593 14089 ft 366 kts 110°
2026-04-30 18:26 53.43158 -1.35475 14663 ft 370 kts 110°
2026-04-30 18:26 53.42405 -1.31320 15220 ft 375 kts 110°
2026-04-30 18:27 53.40875 -1.22878 16299 ft 383 kts 110°
2026-04-30 18:27 53.40097 -1.18581 16821 ft 387 kts 110°
2026-04-30 18:28 53.38518 -1.09900 17221 ft 390 kts 109°
2026-04-30 18:28 53.37722 -1.05546 17233 ft 390 kts 110°
2026-04-30 18:28 53.36126 -0.96868 17241 ft 390 kts 109°
2026-04-30 18:29 53.35337 -0.92593 17244 ft 390 kts 109°
2026-04-30 18:29 53.32927 -0.79606 17246 ft 390 kts 110°
2026-04-30 18:30 53.31309 -0.70963 17247 ft 389 kts 110°
2026-04-30 18:30 53.29696 -0.62318 17247 ft 389 kts 110°
2026-04-30 18:31 53.28886 -0.57993 17247 ft 389 kts 110°
2026-04-30 18:31 53.27252 -0.49370 17247 ft 389 kts 110°
2026-04-30 18:32 53.25609 -0.40741 17247 ft 389 kts 110°
2026-04-30 18:32 53.24789 -0.36441 17250 ft 389 kts 110°
2026-04-30 18:32 53.23149 -0.27823 17245 ft 389 kts 110°
2026-04-30 18:33 53.22331 -0.23519 17247 ft 389 kts 110°
2026-04-30 18:33 53.20692 -0.14966 17247 ft 389 kts 110°
2026-04-30 18:33 53.19863 -0.10679 17247 ft 389 kts 110°
2026-04-30 18:34 53.19029 -0.06382 17246 ft 389 kts 110°
2026-04-30 18:34 53.17360 0.02213 17238 ft 390 kts 110°
2026-04-30 18:34 53.16524 0.06516 17248 ft 390 kts 110°
2026-04-30 18:35 53.15690 0.10811 17251 ft 390 kts 110°
2026-04-30 18:35 53.14852 0.15116 17245 ft 390 kts 110°
2026-04-30 18:35 53.14012 0.19414 17244 ft 390 kts 110°
2026-04-30 18:36 53.12325 0.27990 17251 ft 390 kts 110°
2026-04-30 18:36 53.11475 0.32289 17250 ft 390 kts 110°
2026-04-30 18:36 53.09771 0.40888 17674 ft 394 kts 110°
2026-04-30 18:37 53.08912 0.45233 18257 ft 397 kts 110°
2026-04-30 18:37 53.08045 0.49611 18734 ft 401 kts 110°
2026-04-30 18:37 53.07167 0.54025 19189 ft 403 kts 110°
2026-04-30 18:37 53.06282 0.58465 19675 ft 405 kts 111°
2026-04-30 18:38 53.05399 0.62870 20150 ft 407 kts 110°
2026-04-30 18:38 53.04487 0.67406 20613 ft 410 kts 110°
2026-04-30 18:38 53.03592 0.71850 21060 ft 412 kts 111°
2026-04-30 18:38 53.02679 0.76373 21524 ft 414 kts 111°
2026-04-30 18:39 53.01759 0.80915 21963 ft 416 kts 111°
2026-04-30 18:39 53.00834 0.85479 22391 ft 419 kts 110°
2026-04-30 18:39 52.99899 0.90080 22830 ft 421 kts 110°
2026-04-30 18:39 52.98961 0.94691 23253 ft 423 kts 110°
2026-04-30 18:40 52.98016 0.99323 23675 ft 425 kts 110°
2026-04-30 18:40 52.97039 1.03972 24031 ft 427 kts 111°
2026-04-30 18:40 52.96013 1.08597 24351 ft 429 kts 112°
2026-04-30 18:40 52.94948 1.13242 24696 ft 431 kts 112°
2026-04-30 18:41 52.93870 1.17892 25030 ft 433 kts 112°
2026-04-30 18:41 52.92791 1.22562 25367 ft 435 kts 112°
2026-04-30 18:41 52.91716 1.27252 25691 ft 437 kts 112°
2026-04-30 18:41 52.90642 1.31965 26001 ft 438 kts 112°
2026-04-30 18:42 52.89563 1.36701 26316 ft 440 kts 112°
2026-04-30 18:42 52.87386 1.46212 26911 ft 444 kts 112°
2026-04-30 18:42 52.86287 1.50995 27211 ft 445 kts 112°
2026-04-30 18:45 52.75180 1.98749 30909 ft 440 kts 112°
2026-04-30 18:45 52.74069 2.03471 31271 ft 439 kts 112°
2026-04-30 18:45 52.72963 2.08159 31583 ft 439 kts 112°
2026-04-30 18:46 52.72228 2.11264 31806 ft 438 kts 112°
2026-04-30 18:46 52.70758 2.17449 32274 ft 437 kts 113°
2026-04-30 18:46 52.69651 2.22109 32637 ft 435 kts 113°
2026-04-30 18:46 52.68549 2.26746 32986 ft 434 kts 113°
2026-04-30 18:47 52.67446 2.31374 33339 ft 433 kts 113°
2026-04-30 18:47 52.66345 2.35983 33678 ft 432 kts 113°
2026-04-30 18:47 52.65245 2.40583 34037 ft 431 kts 113°
2026-04-30 18:47 52.64146 2.45168 34367 ft 430 kts 113°
2026-04-30 18:48 52.63418 2.48198 34563 ft 429 kts 113°
2026-04-30 18:48 52.62314 2.52766 34813 ft 430 kts 113°
2026-04-30 18:48 52.61207 2.57341 35041 ft 430 kts 113°
2026-04-30 18:48 52.60093 2.61946 35289 ft 430 kts 113°
2026-04-30 18:49 52.58996 2.66481 35537 ft 430 kts 113°
2026-04-30 18:49 52.57886 2.71057 35784 ft 430 kts 113°
2026-04-30 18:49 52.56774 2.75624 36028 ft 429 kts 113°
2026-04-30 18:49 52.55660 2.80172 36267 ft 429 kts 113°
2026-04-30 18:50 52.54489 2.84680 36492 ft 428 kts 118°
2026-04-30 18:50 52.53071 2.88981 36705 ft 427 kts 120°
2026-04-30 18:50 52.51642 2.93253 36926 ft 427 kts 120°
2026-04-30 18:50 52.50211 2.97527 37142 ft 427 kts 120°
2026-04-30 18:51 52.48780 3.01795 37263 ft 428 kts 120°
2026-04-30 18:51 52.45909 3.10332 37285 ft 430 kts 120°
2026-04-30 18:52 52.43018 3.18905 37283 ft 431 kts 120°
2026-04-30 18:52 52.40109 3.27501 37297 ft 431 kts 120°
2026-04-30 18:53 52.37202 3.36065 37300 ft 430 kts 120°
2026-04-30 18:53 52.34287 3.44618 37291 ft 430 kts 120°
2026-04-30 18:54 52.31369 3.53152 37282 ft 430 kts 120°
2026-04-30 18:54 52.28443 3.61695 37292 ft 431 kts 120°
2026-04-30 18:55 52.25510 3.70225 37284 ft 431 kts 120°
2026-04-30 18:55 52.21114 3.82938 37292 ft 431 kts 120°
2026-04-30 18:56 52.16680 3.95691 37296 ft 431 kts 120°
2026-04-30 18:57 52.12230 4.08408 37295 ft 431 kts 120°
2026-04-30 18:57 52.09270 4.16874 37305 ft 430 kts 120°
2026-04-30 18:58 52.04815 4.29533 37289 ft 430 kts 120°
2026-04-30 18:59 52.00349 4.42155 37302 ft 430 kts 120°
2026-04-30 19:00 51.94385 4.58888 37298 ft 430 kts 120°
2026-04-30 19:01 51.88385 4.75649 37305 ft 430 kts 120°
2026-04-30 19:02 51.83860 4.88195 37300 ft 430 kts 120°
2026-04-30 19:03 51.77803 5.04906 37302 ft 432 kts 120°
2026-04-30 19:04 51.71698 5.21617 37302 ft 432 kts 120°
2026-04-30 19:05 51.65591 5.38250 37306 ft 433 kts 120°
2026-04-30 19:06 51.59425 5.54925 37299 ft 433 kts 120°
2026-04-30 19:06 51.54785 5.67406 37328 ft 434 kts 120°
2026-04-30 19:07 51.50127 5.79881 37330 ft 434 kts 120°
2026-04-30 19:08 51.43906 5.96422 37327 ft 434 kts 120°
2026-04-30 19:09 51.39223 6.08837 37327 ft 434 kts 120°
2026-04-30 19:09 51.36090 6.17079 37328 ft 434 kts 120°
2026-04-30 19:10 51.29779 6.33600 37327 ft 435 kts 120°
2026-04-30 19:11 51.25040 6.45980 37329 ft 436 kts 120°
2026-04-30 19:12 51.21867 6.54230 37335 ft 436 kts 120°
2026-04-30 19:12 51.18700 6.62421 37330 ft 437 kts 120°
2026-04-30 19:13 51.12306 6.78896 37348 ft 437 kts 120°
2026-04-30 19:14 51.09099 6.87130 37350 ft 437 kts 120°
2026-04-30 19:14 51.05880 6.95345 37339 ft 437 kts 120°
2026-04-30 19:15 51.02683 7.03490 37349 ft 437 kts 120°
2026-04-30 19:15 50.97840 7.15767 37349 ft 437 kts 120°
2026-04-30 19:16 50.94604 7.23954 37346 ft 438 kts 120°
2026-04-30 19:17 50.89745 7.36203 37341 ft 437 kts 120°
2026-04-30 19:17 50.84873 7.48413 37347 ft 437 kts 120°
2026-04-30 19:18 50.79987 7.60604 37359 ft 438 kts 120°
2026-04-30 19:19 50.76734 7.68673 37352 ft 438 kts 120°
2026-04-30 19:19 50.71790 7.80894 37352 ft 438 kts 120°
2026-04-30 19:20 50.68530 7.88959 37352 ft 439 kts 120°
2026-04-30 19:21 50.63580 8.01105 37354 ft 439 kts 120°